TimeEST,TemperatureF,Dew PointF,Humidity,Sea Level PressureIn,VisibilityMPH,Wind Direction,Wind SpeedMPH,Gust SpeedMPH,PrecipitationIn,Events,Conditions,WindDirDegrees,DateUTC
12:54 AM,50.0,28.0,43,30.26,10.0,SSE,4.6,-,N/A,,Mostly Cloudy,150,2012-02-16 05:54:00
1:54 AM,50.0,28.0,43,30.21,10.0,East,8.1,-,N/A,,Overcast,100,2012-02-16 06:54:00
2:54 AM,51.8,28.4,41,30.24,10.0,ENE,5.8,-,N/A,,Overcast,60,2012-02-16 07:54:00
3:54 AM,50.0,28.0,43,30.23,10.0,Variable,3.5,-,N/A,,Mostly Cloudy,0,2012-02-16 08:54:00
4:54 AM,48.9,32.0,52,30.22,10.0,SE,4.6,-,0.00,,Overcast,130,2012-02-16 09:54:00
5:54 AM,46.9,36.0,66,30.23,10.0,SSE,6.9,-,0.00,Rain,Light Rain,150,2012-02-16 10:54:00
6:54 AM,45.0,39.0,80,30.19,10.0,SE,5.8,-,0.03,Rain,Light Rain,140,2012-02-16 11:54:00
7:54 AM,44.1,39.0,82,30.19,10.0,South,5.8,-,0.02,Rain,Light Rain,170,2012-02-16 12:54:00
8:54 AM,44.1,39.0,82,30.18,10.0,ESE,5.8,-,0.01,Rain,Light Rain,120,2012-02-16 13:54:00
9:54 AM,46.0,39.0,76,30.15,10.0,ESE,6.9,-,0.00,,Overcast,110,2012-02-16 14:54:00
10:54 AM,46.0,41.0,83,30.16,10.0,NNE,8.1,-,0.01,,Overcast,20,2012-02-16 15:54:00
11:07 AM,46.4,42.8,87,30.16,10.0,NNE,3.5,-,0.00,Rain,Light Rain,30,2012-02-16 16:07:00
11:54 AM,46.9,42.1,83,30.12,9.0,Calm,Calm,-,0.01,Rain,Light Rain,0,2012-02-16 16:54:00
12:35 PM,46.4,42.8,87,30.12,2.0,SSE,3.5,-,0.01,Rain,Light Rain,160,2012-02-16 17:35:00
12:54 PM,46.0,42.1,86,30.12,2.0,SSE,4.6,-,0.03,Rain,Light Rain,160,2012-02-16 17:54:00
1:05 PM,46.4,42.8,87,30.10,7.0,SE,4.6,-,0.00,Rain,Light Rain,140,2012-02-16 18:05:00
1:45 PM,46.4,42.8,87,30.09,3.0,SSE,3.5,-,0.00,Rain,Light Rain,160,2012-02-16 18:45:00
1:52 PM,46.4,42.8,87,30.09,2.5,SSE,3.5,-,0.00,Rain,Light Rain,150,2012-02-16 18:52:00
1:53 PM,46.0,43.0,89,30.09,2.5,SSE,4.6,-,0.01,Rain,Light Rain,160,2012-02-16 18:53:00
2:10 PM,46.4,42.8,87,30.08,3.0,SE,4.6,-,0.00,Rain,Light Rain,140,2012-02-16 19:10:00
2:20 PM,46.4,42.8,87,30.08,2.5,SE,3.5,-,0.01,Rain,Light Rain,140,2012-02-16 19:20:00
2:44 PM,46.4,42.8,87,30.08,1.5,SSE,3.5,-,0.02,Rain,Light Rain,150,2012-02-16 19:44:00
2:54 PM,46.0,44.1,93,30.07,1.5,SSE,5.8,-,0.02,Rain,Light Rain,150,2012-02-16 19:54:00
3:10 PM,46.4,44.6,93,30.06,1.5,SSE,9.2,-,0.00,Rain,Light Rain,150,2012-02-16 20:10:00
3:52 PM,46.4,44.6,93,30.05,4.0,Calm,Calm,-,0.00,,Overcast,0,2012-02-16 20:52:00
3:54 PM,46.9,44.1,90,30.05,4.0,Calm,Calm,-,0.00,,Overcast,0,2012-02-16 20:54:00
4:34 PM,46.4,44.6,93,30.04,2.0,Calm,Calm,-,N/A,,Overcast,0,2012-02-16 21:34:00
4:54 PM,46.9,45.0,93,30.04,2.0,Calm,Calm,-,N/A,,Overcast,0,2012-02-16 21:54:00
5:03 PM,46.4,44.6,93,30.04,1.5,SW,3.5,-,N/A,,Overcast,220,2012-02-16 22:03:00
5:54 PM,48.0,45.0,89,30.05,1.5,Calm,Calm,-,N/A,,Overcast,0,2012-02-16 22:54:00
6:54 PM,46.4,44.6,93,30.04,1.5,NNW,3.5,-,N/A,,Overcast,330,2012-02-16 23:54:00
7:02 PM,46.4,44.6,93,30.04,4.0,Calm,Calm,-,N/A,,Overcast,0,2012-02-17 00:02:00
7:22 PM,46.4,44.6,93,30.04,3.0,Calm,Calm,-,N/A,,Overcast,0,2012-02-17 00:22:00
7:47 PM,46.4,44.6,93,30.04,2.5,Calm,Calm,-,N/A,,Overcast,0,2012-02-17 00:47:00
7:54 PM,46.9,45.0,93,30.05,2.5,Calm,Calm,-,N/A,,Overcast,0,2012-02-17 00:54:00
8:22 PM,46.4,44.6,93,30.04,2.0,Calm,Calm,-,N/A,,Mostly Cloudy,0,2012-02-17 01:22:00
8:31 PM,46.4,44.6,93,30.04,2.0,Calm,Calm,-,N/A,,Overcast,0,2012-02-17 01:31:00
8:46 PM,46.4,44.6,93,30.03,1.8,Calm,Calm,-,N/A,,Overcast,0,2012-02-17 01:46:00
8:54 PM,46.9,45.0,93,30.04,1.8,Calm,Calm,-,N/A,,Overcast,0,2012-02-17 01:54:00
9:01 PM,46.4,44.6,93,30.04,2.0,Calm,Calm,-,N/A,,Overcast,0,2012-02-17 02:01:00
9:31 PM,46.4,44.6,93,30.04,1.0,ENE,3.5,-,N/A,,Overcast,60,2012-02-17 02:31:00
9:33 PM,46.4,44.6,93,30.04,0.2,ENE,4.6,-,N/A,,Overcast,70,2012-02-17 02:33:00
9:41 PM,46.4,44.6,93,30.04,2.0,NE,4.6,-,N/A,,Overcast,40,2012-02-17 02:41:00
9:54 PM,46.9,45.0,93,30.05,2.5,NE,3.5,-,N/A,,Overcast,50,2012-02-17 02:54:00
10:02 PM,46.4,44.6,93,30.04,3.0,NNE,3.5,-,N/A,,Overcast,30,2012-02-17 03:02:00
10:54 PM,53.1,42.1,66,30.05,10.0,WNW,8.1,-,N/A,,Overcast,290,2012-02-17 03:54:00
11:54 PM,52.0,41.0,66,30.04,10.0,Calm,Calm,-,N/A,,Overcast,0,2012-02-17 04:54:00